When you browse on this site, cookies collect data to enhance your experience and personalize the content and advertising you see.
Visit our Privacy Policy to learn more. By continuing to use the site, you agree to this use of cookies and data.
EN

Hourly Weather Nikitino

Today, 22 September, Tuesday

Time Temperature Precipitation Wind Pressure Humidity
00:00 +8°C° 0 mm 4 mps 745 mmHg 88%
01:00 +8°C° 0 mm 4 mps 746 mmHg 88%
02:00 +8°C° 0 mm 4 mps 746 mmHg 89%
03:00 +8°C° 0 mm 4 mps 746 mmHg 93%
04:00 +8°C° 0 mm 4 mps 746 mmHg 94%
05:00 +8°C° 0 mm 4 mps 746 mmHg 95%
06:00 +7°C° 0 mm 4 mps 746 mmHg 96%
07:00 +8°C° 0 mm 5 mps 746 mmHg 91%
08:00 +9°C° 0 mm 5 mps 746 mmHg 86%
09:00 +11°C° 0 mm 6 mps 746 mmHg 81%
10:00 +13°C° 0 mm 6 mps 746 mmHg 77%
11:00 +14°C° 0 mm 7 mps 746 mmHg 72%
12:00 +15°C° 0 mm 7 mps 745 mmHg 67%
13:00 +16°C° 0 mm 7 mps 745 mmHg 66%
14:00 +17°C° 0 mm 8 mps 745 mmHg 65%
15:00 +17°C° 0 mm 8 mps 745 mmHg 64%
16:00 +17°C° 0 mm 7 mps 744 mmHg 67%
17:00 +16°C° 0 mm 7 mps 744 mmHg 71%
18:00 +15°C° 0 mm 6 mps 744 mmHg 74%
19:00 +15°C° 0 mm 6 mps 744 mmHg 75%
20:00 +14°C° 0 mm 6 mps 745 mmHg 76%
21:00 +14°C° 0 mm 6 mps 745 mmHg 76%
22:00 +14°C° 0 mm 6 mps 745 mmHg 78%
23:00 +13°C° 0 mm 6 mps 744 mmHg 79%

Tomorrow, 23 September, Wednesday

Time Temperature Precipitation Wind Pressure Humidity
00:00 +13°C° 0 mm 6 mps 744 mmHg 81%
01:00 +12°C° 0 mm 5 mps 745 mmHg 82%
02:00 +12°C° 0 mm 5 mps 745 mmHg 84%
03:00 +10°C° 0 mm 5 mps 746 mmHg 85%
04:00 +10°C° 0 mm 4 mps 746 mmHg 87%
05:00 +10°C° 0 mm 4 mps 746 mmHg 89%
06:00 +8°C° 0 mm 4 mps 747 mmHg 91%
07:00 +11°C° 0 mm 4 mps 747 mmHg 86%
08:00 +12°C° 0 mm 4 mps 748 mmHg 82%
09:00 +13°C° 0 mm 4 mps 748 mmHg 77%
10:00 +14°C° 0 mm 4 mps 748 mmHg 72%
11:00 +17°C° 0 mm 4 mps 748 mmHg 67%
12:00 +18°C° 0 mm 3 mps 748 mmHg 63%
13:00 +19°C° 0 mm 3 mps 749 mmHg 62%
14:00 +19°C° 0 mm 3 mps 749 mmHg 60%
15:00 +19°C° 0 mm 3 mps 749 mmHg 59%
16:00 +18°C° 0 mm 2 mps 749 mmHg 65%
17:00 +16°C° 0 mm 2 mps 749 mmHg 71%
18:00 +15°C° 0 mm 1 mps 749 mmHg 78%
19:00 +14°C° 0 mm 1 mps 750 mmHg 80%
20:00 +14°C° 0 mm 1 mps 750 mmHg 82%
21:00 +12°C° 0 mm 0 mps 750 mmHg 85%
22:00 +13°C° 0 mm 1 mps 750 mmHg 86%
23:00 +13°C° 0 mm 1 mps 750 mmHg 87%

Day after tomorrow, 24 September, Thursday

Time Temperature Precipitation Wind Pressure Humidity
00:00 +12°C° 0 mm 1 mps 750 mmHg 88%
01:00 +12°C° 0 mm 1 mps 751 mmHg 88%
02:00 +12°C° 0 mm 1 mps 751 mmHg 89%
03:00 +12°C° 0 mm 1 mps 751 mmHg 90%
04:00 +11°C° 0 mm 1 mps 751 mmHg 90%
05:00 +11°C° 0 mm 1 mps 751 mmHg 91%
06:00 +10°C° 0 mm 2 mps 752 mmHg 91%
07:00 +12°C° 0 mm 2 mps 752 mmHg 86%
08:00 +14°C° 0 mm 2 mps 752 mmHg 80%
09:00 +16°C° 0 mm 3 mps 752 mmHg 74%
10:00 +17°C° 0 mm 3 mps 752 mmHg 68%
11:00 +18°C° 0 mm 3 mps 752 mmHg 61%
12:00 +20°C° 0 mm 3 mps 752 mmHg 55%
13:00 +20°C° 0 mm 3 mps 752 mmHg 54%
14:00 +20°C° 0 mm 3 mps 752 mmHg 53%
15:00 +21°C° 0 mm 3 mps 752 mmHg 53%
16:00 +19°C° 0 mm 2 mps 752 mmHg 59%
17:00 +17°C° 0 mm 2 mps 752 mmHg 65%
18:00 +16°C° 0 mm 2 mps 752 mmHg 71%
19:00 +15°C° 0 mm 2 mps 752 mmHg 74%
20:00 +15°C° 0 mm 2 mps 752 mmHg 76%
21:00 +14°C° 0 mm 2 mps 753 mmHg 78%
22:00 +14°C° 0 mm 2 mps 753 mmHg 80%
23:00 +14°C° 0 mm 2 mps 753 mmHg 82%

25 September, Friday

Time Temperature Precipitation Wind Pressure Humidity
00:00 +13°C° 0 mm 2 mps 753 mmHg 83%
01:00 +13°C° 0 mm 2 mps 753 mmHg 84%
02:00 +13°C° 0 mm 2 mps 753 mmHg 84%
03:00 +13°C° 0 mm 2 mps 753 mmHg 85%
04:00 +12°C° 0 mm 2 mps 753 mmHg 83%
05:00 +12°C° 0 mm 2 mps 754 mmHg 81%
06:00 +12°C° 0 mm 2 mps 754 mmHg 79%
07:00 +12°C° 0 mm 3 mps 754 mmHg 73%
08:00 +13°C° 0 mm 3 mps 754 mmHg 67%
09:00 +16°C° 0 mm 3 mps 754 mmHg 61%
10:00 +17°C° 0 mm 3 mps 754 mmHg 58%
11:00 +18°C° 0 mm 4 mps 754 mmHg 54%
12:00 +19°C° 0 mm 4 mps 754 mmHg 51%
13:00 +19°C° 0 mm 4 mps 754 mmHg 51%
14:00 +19°C° 0 mm 4 mps 754 mmHg 50%
15:00 +19°C° 0 mm 3 mps 754 mmHg 50%
16:00 +18°C° 0 mm 3 mps 754 mmHg 53%
17:00 +17°C° 0 mm 3 mps 754 mmHg 57%
18:00 +14°C° 0 mm 3 mps 754 mmHg 60%
19:00 +14°C° 0 mm 3 mps 754 mmHg 60%
20:00 +13°C° 0 mm 3 mps 754 mmHg 60%
21:00 +12°C° 0 mm 3 mps 754 mmHg 60%
22:00 +12°C° 0 mm 3 mps 755 mmHg 61%
23:00 +11°C° 0 mm 3 mps 755 mmHg 61%

26 September, Saturday

Time Temperature Precipitation Wind Pressure Humidity
00:00 +11°C° 0 mm 3 mps 755 mmHg 62%
01:00 +11°C° 0 mm 3 mps 755 mmHg 62%
02:00 +10°C° 0 mm 2 mps 755 mmHg 63%
03:00 +10°C° 0 mm 2 mps 755 mmHg 63%
04:00 +10°C° 0 mm 2 mps 755 mmHg 65%
05:00 +9°C° 0 mm 3 mps 755 mmHg 66%
06:00 +9°C° 0 mm 3 mps 755 mmHg 67%
07:00 +10°C° 0 mm 3 mps 755 mmHg 64%
08:00 +11°C° 0 mm 3 mps 755 mmHg 61%
09:00 +13°C° 0 mm 3 mps 755 mmHg 58%
10:00 +14°C° 0 mm 4 mps 755 mmHg 55%
11:00 +15°C° 0 mm 4 mps 755 mmHg 52%
12:00 +17°C° 0 mm 4 mps 755 mmHg 49%
13:00 +18°C° 0 mm 4 mps 755 mmHg 49%
14:00 +18°C° 0 mm 4 mps 755 mmHg 48%
15:00 +19°C° 0 mm 4 mps 755 mmHg 48%
16:00 +18°C° 0 mm 4 mps 755 mmHg 53%
17:00 +16°C° 0 mm 3 mps 755 mmHg 57%
18:00 +14°C° 0 mm 3 mps 755 mmHg 62%
19:00 +13°C° 0 mm 3 mps 755 mmHg 62%
20:00 +12°C° 0 mm 4 mps 756 mmHg 62%
21:00 +12°C° 0 mm 4 mps 756 mmHg 62%
22:00 +11°C° 0 mm 3 mps 756 mmHg 62%
23:00 +11°C° 0 mm 3 mps 756 mmHg 63%

27 September, Sunday

Time Temperature Precipitation Wind Pressure Humidity
00:00 +10°C° 0 mm 3 mps 756 mmHg 63%
01:00 +10°C° 0 mm 3 mps 757 mmHg 63%
02:00 +10°C° 0 mm 3 mps 757 mmHg 63%
03:00 +9°C° 0 mm 3 mps 757 mmHg 63%
04:00 +9°C° 0 mm 3 mps 757 mmHg 64%
05:00 +8°C° 0 mm 3 mps 757 mmHg 65%
06:00 +8°C° 0 mm 3 mps 758 mmHg 67%
07:00 +9°C° 0 mm 3 mps 758 mmHg 63%
08:00 +11°C° 0 mm 3 mps 758 mmHg 59%
09:00 +13°C° 0 mm 4 mps 758 mmHg 56%
10:00 +14°C° 0 mm 4 mps 758 mmHg 52%
11:00 +15°C° 0 mm 4 mps 758 mmHg 47%
12:00 +17°C° 0 mm 5 mps 758 mmHg 43%
13:00 +17°C° 0 mm 5 mps 758 mmHg 43%
14:00 +18°C° 0 mm 4 mps 758 mmHg 43%
15:00 +19°C° 0 mm 4 mps 758 mmHg 42%
16:00 +17°C° 0 mm 4 mps 757 mmHg 47%
17:00 +14°C° 0 mm 4 mps 757 mmHg 52%
18:00 +13°C° 0 mm 3 mps 757 mmHg 57%
19:00 +12°C° 0 mm 3 mps 757 mmHg 57%
20:00 +11°C° 0 mm 3 mps 757 mmHg 58%
21:00 +11°C° 0 mm 3 mps 758 mmHg 58%
22:00 +10°C° 0 mm 3 mps 758 mmHg 59%
23:00 +10°C° 0 mm 3 mps 758 mmHg 60%
Show more